Back to catalog

STARLINK-5164

AliveCommunicationsVLEO
NORAD 54178·PAYLOAD·🇺🇸 United States

Launched Oct 28, 2022 from Vandenberg Space Force Base

Loading…

Next Passes (next 24 hours)

TLE

FreshSource: CelesTrak SupGP

Epoch: Sep 14, 2026, 21:55 UTC

1 54178C 22141X   26257.91368056 -.00004123  00000+0 -12180-3 0  2578
2 54178  53.1582 219.8322 0001346  95.1858 354.6367 15.34396439    10

Track STARLINK-5164 in real time with AllMySat

Download on the App Store